Other Surface Observations
Issued by NWS Upton, NY

Home | Current Version | Previous Version | Text Only | Print | Product List | Glossary On
Versions: 1 2 3 4 5 6 7 8 9 10 11 12 13 14 15 16 17 18 19 20 21 22 23 24 25 26 27 28 29 30 31 32 33 34 35 36 37 38 39 40 41 42 43 44 45 46 47 48 49 50
000
SXUS51 KOKX 210257
OSOOKX
New York City Metropolitan Area Weather Roundup
National Weather Service New York NY
1000 PM EST TUE FEB 20 2018

CITY           SKY/WX    TMP DP  RH WIND       PRES   REMARKS
Central Park   FAIR      65  56  72 VRB7      30.34R
LaGuardia Arpt MOCLDY    56  49  77 S6        30.32R
Kennedy Intl   FAIR      48  47  96 CALM      30.35R
Newark Liberty MOCLDY    60  54  80 S9        30.32R
Teterboro Arpt FAIR      55  51  86 SW5       30.30S
Bronx Bot Gard   N/A     54  48  82 SE2       30.34S
Bronx Lehman C   N/A     57  50  77 SE2         N/A
Queens College   N/A     54  48  82 S7          N/A
Breezy Point     N/A     45 N/A N/A S8          N/A
Brooklyn Coll    N/A     52  46  82 E2          N/A
Staten Island    N/A     61  55  82 S6          N/A

>>>>>>>>>>>>>>>>>>>>>>>>>>>>>>>>> KEY <<<<<<<<<<<<<<<<<<<<<<<<<<<<<<<
> SKY/WX - Sky Condition/Present    : R : WCI - Wind Chill Index    <
>          Weather                  : E : VSB - Visibility in Miles <
> TMP    - Temperature in Deg F     : M : HX  - Heat Index          <
> DP     - Dew Point Temperature    : A : TC  - Temperature in      <
> RH     - Relative Humidity        : R :       Celsius             <
> WIND   - Direction/Speed (mph)    : K : VRB - Variable Wind Dir   <
> PRES   - Pressure (in Hg)         : S :                           <
>>>>>>>>>>>>>>>>>>>>>>>>>>>>>>>>> KEY <<<<<<<<<<<<<<<<<<<<<<<<<<<<<<<



USA.gov is the U.S. government's official web portal to all federal, state and local government web resources and services.